Погода в Бузиновке

Россия / Волгоградская область     48°30′06″N   43°53′42″E
темп.,
°C
ветер,
м/с
пор.,
м/с
влажн.,
%
обл.,
%
осадки,
мм/ч
давл.,
гПа
погр.,
м
5 декабря, вс
вс500:00+5с4586100 0.0 1014174
03:00+4всв5787100 0.0 1014249
06:00+3всв6989100 0.1 1013294
09:00+3в4690100 0.1 1014275
12:00+5вюв5793100 3.4 1012248
15:00+7ю4995100 5.7 1010360
18:00+6ююз3794100 1.7 1011242
21:00+5св3397100 2.7 1012109
6 декабря, пн
пн600:00+3ссв4594100 0.0 1014226
03:00+3ссв4593100 0.1 1016279
06:00+2ссв3592100 0.1 1017306
09:00+2св3391100 0.1 1019255
12:00+3ссв2288100 0.0 1020280
15:00+3ссв2286100 0.0 1021256
18:00+3всв2287100 0.0 1022146
21:00+2всв228887 0.1 1023109
7 декабря, вт
вт700:00+1вюв2393100 0.0 102441
03:00+2вюв3490100 0.0 1024117
06:00+2вюв4791100 0.0 1024205
09:00+3вюв5888100 0.0 1025247
12:00+6юв6976100 0.0 1024365
15:00+6вюв61278100 0.0 1023369
18:00+5вюв71485100 0.0 1022343
21:00+5юв81687100 0.0 1022370
8 декабря, ср
ср800:00+4вюв7178994 0.0 1021392
03:00+4вюв81888100 0.0 1020427
06:00+4вюв81986100 0.0 1018438
09:00+5вюв81979100 0.0 1018528
12:00+8юв8176450 0.0 1016759
15:00+9юв8146188 0.0 1015764
18:00+7вюв71467100 0.0 1015482
21:00+6вюв7146896 0.0 1015504
9 декабря, чт
чт900:00+5вюв61168100 0.0 1015449
03:00+5вюв4968100 0.0 1015353
06:00+5вюв4771100 0.0 1015243
09:00+4ююв2575100 0.0 1017257
12:00+6юв1266100 0.0 1017273
15:00+6в2269100 0.0 1017147
18:00+5вюв2276100 0.0 101831
21:00+5ю2277100 0.0 101921